Tracking 35237 objects as of 6-Sep-2026
HD Live streaming from Space Station
objects crossing your sky now

COSMOS 1344

Track COSMOS 1344 now!
10-day predictions
COSMOS 1344 is classified as:


NORAD ID: 13110
Int'l Code: 1982-024A
Launch date: March 24, 1982
Source: Commonwealth of Independent States (former USSR) (CIS)
Launch site: PLESETSK MISSILE AND SPACE COMPLEX (PKMTR)
Your satellite tracking list
Your tracking list is empty




NASA's NSSDC Master Catalog

Two Line Element Set (TLE):
1 13110U 82024A   26248.43068126  .00000041  00000-0  27356-4 0  9996
2 13110  82.9263 358.9046 0029710 121.0302 308.3730 13.74242569228561
Source of the keplerian elements: AFSPC